RYR1309 EBCI-LIMJ

Flight info

Callsign RYR1309
Flight time N/A
Altitude 39000
Route RITAX UT27 ROUSY DCT GTQ DCT DEVDI DCT ODINA/N0391F190 DCT SRN DCT VOG M858 RUCFO
Aircraft B738/M-SDE2E3FGHIRWXY/LB1

Departure

Time N/A
Airport Brussels South Charleroi Airport (EBCI)

Arrival

Time 2026-04-30 12:28
Airport Genoa Cristoforo Colombo Airport (LIMJ)
Time Latitude Longitude Altitude Speed Heading
2026-04-30 12:06 45.10125 8.98040 25552 ft 464 kts 184°
2026-04-30 12:06 45.06922 8.97800 24920 ft 460 kts 184°
2026-04-30 12:07 45.03724 8.97561 24271 ft 457 kts 184°
2026-04-30 12:07 45.00545 8.97324 23566 ft 455 kts 184°
2026-04-30 12:07 44.97395 8.97108 22858 ft 451 kts 181°
2026-04-30 12:07 44.94278 8.97333 22202 ft 447 kts 172°
2026-04-30 12:08 44.91229 8.98047 21567 ft 442 kts 170°
2026-04-30 12:08 44.88213 8.98762 20936 ft 438 kts 171°
2026-04-30 12:08 44.85246 8.99421 20316 ft 434 kts 171°
2026-04-30 12:08 44.82269 9.00043 19698 ft 430 kts 171°
2026-04-30 12:09 44.79314 9.00646 19087 ft 427 kts 172°
2026-04-30 12:09 44.76385 9.01241 18435 ft 424 kts 171°
2026-04-30 12:09 44.73476 9.01836 17741 ft 421 kts 171°
2026-04-30 12:09 44.70595 9.02428 17083 ft 417 kts 171°
2026-04-30 12:10 44.67734 9.03017 16482 ft 413 kts 172°
2026-04-30 12:10 44.64897 9.03601 15875 ft 409 kts 172°
2026-04-30 12:10 44.62086 9.04185 15273 ft 406 kts 172°
2026-04-30 12:10 44.59300 9.04763 14688 ft 402 kts 172°
2026-04-30 12:11 44.56541 9.05336 14086 ft 400 kts 172°
2026-04-30 12:11 44.53823 9.05895 13438 ft 398 kts 172°
2026-04-30 12:11 44.51095 9.06453 12801 ft 395 kts 172°
2026-04-30 12:11 44.48391 9.07006 12308 ft 388 kts 172°
2026-04-30 12:12 44.45805 9.07537 12173 ft 363 kts 172°
2026-04-30 12:12 44.43381 9.08031 12014 ft 341 kts 172°
2026-04-30 12:12 44.41084 9.08212 11863 ft 323 kts 184°
2026-04-30 12:12 44.38896 9.07913 11763 ft 311 kts 187°
2026-04-30 12:13 44.36754 9.07542 11655 ft 310 kts 187°
2026-04-30 12:13 44.34600 9.07200 11530 ft 311 kts 187°
2026-04-30 12:13 44.32471 9.06896 11389 ft 303 kts 186°
2026-04-30 12:13 44.30397 9.06636 11254 ft 295 kts 181°
2026-04-30 12:14 44.28419 9.07160 11134 ft 286 kts 155°
2026-04-30 12:14 44.26796 9.08580 11146 ft 275 kts 141°
2026-04-30 12:14 44.25297 9.10194 11140 ft 270 kts 140°
2026-04-30 12:14 44.23825 9.11782 11133 ft 265 kts 141°
2026-04-30 12:15 44.22370 9.13342 11113 ft 262 kts 141°
2026-04-30 12:15 44.20926 9.14886 10997 ft 262 kts 141°
2026-04-30 12:15 44.19467 9.16437 10859 ft 264 kts 141°
2026-04-30 12:15 44.18004 9.17986 10689 ft 262 kts 141°
2026-04-30 12:16 44.16565 9.19507 10525 ft 258 kts 141°
2026-04-30 12:16 44.15145 9.21007 10354 ft 254 kts 141°
2026-04-30 12:16 44.13742 9.22489 10192 ft 253 kts 141°
2026-04-30 12:16 44.12358 9.23949 10033 ft 252 kts 141°
2026-04-30 12:17 44.10322 9.27601 9661 ft 235 kts 94°
2026-04-30 12:17 44.10444 9.29818 9460 ft 229 kts 69°
2026-04-30 12:17 44.11157 9.31769 9250 ft 226 kts 52°
2026-04-30 12:18 44.12101 9.33526 9032 ft 227 kts 50°
2026-04-30 12:18 44.13074 9.35263 8804 ft 227 kts 49°
2026-04-30 12:18 44.14287 9.36623 8556 ft 225 kts 21°
2026-04-30 12:18 44.15813 9.36935 8357 ft 223 kts 353°
2026-04-30 12:19 44.17272 9.36230 8141 ft 225 kts 330°
2026-04-30 12:19 44.18548 9.34974 7941 ft 225 kts 324°
2026-04-30 12:19 44.19790 9.33639 7715 ft 226 kts 324°
2026-04-30 12:19 44.21038 9.32299 7424 ft 229 kts 324°
2026-04-30 12:20 44.22315 9.30924 7110 ft 232 kts 324°
2026-04-30 12:20 44.23593 9.29559 6868 ft 231 kts 324°
2026-04-30 12:20 44.24872 9.28202 6637 ft 230 kts 324°
2026-04-30 12:20 44.26127 9.26871 6392 ft 229 kts 325°
2026-04-30 12:21 44.27394 9.25529 6163 ft 228 kts 325°
2026-04-30 12:21 44.28653 9.24213 5938 ft 223 kts 327°
2026-04-30 12:21 44.29934 9.23029 5664 ft 219 kts 329°
2026-04-30 12:21 44.31203 9.21891 5394 ft 214 kts 330°
2026-04-30 12:22 44.32445 9.20773 5166 ft 210 kts 330°
2026-04-30 12:22 44.33659 9.19662 4926 ft 208 kts 325°
2026-04-30 12:22 44.34521 9.18065 4657 ft 208 kts 293°
2026-04-30 12:22 44.34951 9.16189 4581 ft 199 kts 290°
2026-04-30 12:23 44.35326 9.14328 4327 ft 200 kts 287°
2026-04-30 12:23 44.35672 9.12475 4100 ft 196 kts 287°
2026-04-30 12:23 44.36025 9.10649 3822 ft 193 kts 288°
2026-04-30 12:23 44.36375 9.08847 3571 ft 190 kts 288°
2026-04-30 12:24 44.36603 9.07672 3388 ft 188 kts 288°
2026-04-30 12:24 44.36944 9.05922 3113 ft 184 kts 288°
2026-04-30 12:24 44.37277 9.04216 2860 ft 179 kts 288°
2026-04-30 12:24 44.37598 9.02561 2608 ft 174 kts 289°
2026-04-30 12:25 44.37910 9.00958 2366 ft 167 kts 289°
2026-04-30 12:25 44.38210 8.99418 2134 ft 160 kts 289°
2026-04-30 12:25 44.38500 8.97936 1913 ft 157 kts 289°
2026-04-30 12:25 44.38783 8.96493 1702 ft 154 kts 288°
2026-04-30 12:26 44.39058 8.95081 1484 ft 149 kts 288°
2026-04-30 12:26 44.39324 8.93716 1272 ft 145 kts 291°
2026-04-30 12:26 44.39598 8.92305 1044 ft 153 kts 291°
2026-04-30 12:26 44.39877 8.90873 898 ft 151 kts 289°
2026-04-30 12:27 44.40148 8.89458 737 ft 151 kts 290°
2026-04-30 12:27 44.40429 8.88044 517 ft 150 kts 290°
2026-04-30 12:27 44.40706 8.86653 267 ft 146 kts 292°
2026-04-30 12:27 44.40969 8.85311 26 ft 137 kts 286°
2026-04-30 12:28 44.41199 8.84173 22 ft 102 kts 285°
2026-04-30 12:28 44.41344 8.83422 22 ft 58 kts 285°
2026-04-30 12:28 44.41447 8.83119 20 ft 14 kts 323°
2026-04-30 12:28 44.41491 8.83088 20 ft 8 kts 353°
2026-04-30 12:29 44.41545 8.83147 19 ft 13 kts 77°
2026-04-30 12:29 44.41519 8.83313 19 ft 23 kts 105°
2026-04-30 12:29 44.41466 8.83587 20 ft 33 kts 106°
2026-04-30 12:29 44.41405 8.83894 19 ft 32 kts 105°
2026-04-30 12:30 44.41348 8.84188 19 ft 30 kts 105°
2026-04-30 12:30 44.41321 8.84419 20 ft 18 kts 56°
2026-04-30 12:30 44.41397 8.84556 19 ft 17 kts 52°
2026-04-30 12:30 44.41470 8.84688 19 ft 17 kts 52°
2026-04-30 12:31 44.41511 8.84821 19 ft 13 kts 109°
2026-04-30 12:31 44.41493 8.84912 19 ft 7 kts 105°
2026-04-30 12:31 44.41489 8.84933 19 ft 0 kts 104°